Location: Bethel Church
(38.0159°N, 88.7292°W)
Time: 03:06:35
(UTC+00:00)

Cosmos 2298 Rocket - Pass Details

Date: 08 December 2021
Orbit: 775 x 784 km, 74.0° (Epoch: 21 January)

Event Time Altitude Azimuth Distance (km) Brightness Sun altitude
Rises 23:32:21 0° 349° (NNW) 3,274 7.2 -11.1°
Reaches altitude 10° 23:34:52 10° 356° (N) 2,344 6.4 -11.5°
Maximum altitude 23:39:54 41° 67° (ENE) 1,123 4.4 -12.5°
Drops below altitude 10° 23:44:54 10° 137° (SE) 2,334 6.3 -13.4°
Sets 23:47:24 0° 144° (SE) 3,259 7.1 -13.9°
